Regional Weather Roundup
Issued by NWS

Home | Current Version | Previous Version | Graphics & Text | Print | Product List | Glossary On
Versions: 1 2 3 4 5 6 7 8 9 10 11 12 13 14 15 16 17 18 19 20 21 22 23 24 25 26 27 28 29 30 31 32 33 34 35 36 37 38 39 40 41 42 43 44 45 46 47 48 49 50
000
ASUS43 KMKX 050800
RWRWI

WISCONSIN REGIONAL WEATHER ROUNDUP
NATIONAL WEATHER SERVICE MILWAUKEE/SULLIVAN WI
300 AM CDT SUN JUL 05 2015

NOTE: "FAIR" INDICATES FEW OR NO CLOUDS BELOW 12,000 FEET WITH NO
SIGNIFICANT WEATHER AND/OR OBSTRUCTIONS TO VISIBILITY.

WIZ001-002-006>008-014>016-023>028-050900-
NORTHWEST WISCONSIN

CITY           SKY/WX    TMP DP  RH WIND       PRES   REMARKS
SUPERIOR ARPT  PTCLDY    54  54  99 CALM      29.92R
ASHLAND        CLEAR     55  55 100 CALM      29.92S FOG
HAYWARD        MOCLDY    67  63  87 S5        29.94S FOG
SIREN          CLEAR     68  63  84 S6        29.92S
CUMBERLAND     CLEAR     63  61  94 S6        29.95S FOG
RICE LAKE      CLEAR     65  62  90 S5        29.96F FOG
CHETEK         CLEAR     66  64  92 SE3       29.96S
LADYSMITH      CLEAR     66  64  92 S7        29.98F FOG
EAU CLAIRE     NOT AVBL
MENOMONIE      CLEAR     65  62  91 CALM      29.96S
NEW RICHMOND   CLEAR     65  59  79 S9        29.94F
OSCEOLA        CLEAR     66  65  97 S6        29.95S
$$

WIZ003>005-009-010-017-018-050900-
NORTH CENTRAL WISCONSIN

CITY           SKY/WX    TMP DP  RH WIND       PRES   REMARKS
MANITOWISH WTR CLEAR     62  62 100 S3        29.98F FOG
ARBOR VITAE    CLEAR     62  60  93 SE5       29.99F FOG
WOODRUFF       CLEAR     62  60  93 SE5       29.99F FOG
RHINELANDER    PTCLDY    61  59  93 S3        30.01F FOG
EAGLE RIVER    PTCLDY    63  63 100 S3        30.00F FOG
LAND O LAKES   CLEAR     63  63 100 CALM      30.01F FOG
PHILLIPS       CLEAR     64  63  96 S6        29.98F
TOMAHAWK         N/A     59  58  97 CALM      30.01F FOG
MEDFORD        CLEAR     64  62  96 S5        30.01F FOG
MERRILL          N/A     58  58 100 CALM      30.02S FOG
$$

WIZ029-030-035-036-043>047-050900-
CENTRAL WISCONSIN

CITY           SKY/WX    TMP DP  RH WIND       PRES   REMARKS
WAUSAU         CLEAR     64  62  93 CALM      30.00F FOG
MOSINEE        CLEAR     63  63 100 S6        30.03F
MARSHFIELD     PTCLDY    63  60  90 S6        30.01F FOG
STEVENS POINT  CLEAR     61  59  92 CALM      30.03F
WAUPACA        CLEAR     62  62  98 CALM      30.03S FOG
WAUTOMA        NOT AVBL
WISC RAPIDS    CLEAR     64  60  87 S3        30.02F
CAMP DOUGLAS   FOG       57  57 100 SE3       30.01F VSB 1
$$

WIZ011>013-019>022-031-037>040-048>050-050900-
NORTHEAST WISCONSIN

CITY           SKY/WX    TMP DP  RH WIND       PRES   REMARKS
ANTIGO         CLEAR     61  61 100 S5        30.03F FOG
SHAWANO        CLOUDY    68  64  85 CALM      30.02S
OCONTO         PTCLDY    60  60 100 CALM      30.01S
STURGEON BAY   CLEAR     59  54  82 S8        30.05S
GREEN BAY      CLEAR     63  60  90 S5        30.03R FOG
MANITOWOC      CLEAR     59  57  94 MISG      30.05R FOG
APPLETON       CLEAR     64  59  82 SW5       30.04R
CLINTONVILLE   MOCLDY    64  63  94 CALM      30.02S FOG
OSHKOSH        CLEAR     66  61  84 SW6       30.03S
$$

WIZ032>034-041-042-053>061-050900-
SOUTHWEST WISCONSIN

CITY           SKY/WX    TMP DP  RH WIND       PRES   REMARKS
LA CROSSE      CLEAR     68  65  90 S7        29.99F
SPARTA         PTCLDY    58  56  94 CALM      30.02F
VIROQUA        CLEAR     64  59  83 S6        30.03F
BOSCOBEL       PTCLDY    59  58  96 CALM      30.03S FOG
PRAIRIE DU CHI CLEAR     60  58  92 CALM      30.02S
PLATTEVILLE    CLEAR     64  61  91 CALM      30.05S
$$

WIZ056-057-062-063-064-067-068-050900-
SOUTH CENTRAL WISCONSIN

CITY           SKY/WX    TMP DP  RH WIND       PRES   REMARKS
REEDSBURG      CLEAR     61  59  94 CALM      30.04S
BARABOO/DELLS  CLEAR     61  58  89 CALM      30.04S
LONE ROCK      NOT AVBL
MINERAL POINT  CLEAR     64  61  88 S3        30.05S
MADISON        CLEAR     65  59  81 CALM      30.04S
MIDDLETON      CLEAR     63  61  94 CALM      30.05S
WATERTOWN      CLEAR     61  61 100 CALM      30.05R
MONROE         CLEAR     63  59  88 SW6       30.06R
JANESVILLE     CLEAR     63  59  88 CALM      30.05S FOG
$$

WIZ051-052-058>065-066-070>072-050900-
SOUTHEAST WISCONSIN

CITY           SKY/WX    TMP DP  RH WIND       PRES   REMARKS
MILWAUKEE      PTCLDY    66  55  67 CALM      30.05R
WAUKESHA       CLEAR     63  59  88 CALM      30.07R
MILWAUKEE/TIMM CLEAR     63  54  72 CALM      30.06R
RACINE         CLEAR     63  55  75 CALM      30.07R HAZE
BURLINGTON     FOG       55  55  98 CALM      30.06R VSB 1/2
KENOSHA        CLEAR     58  54  86 CALM      30.06R
FOND DU LAC    CLEAR     63  61  93 S5        30.04R
SHEBOYGAN      CLEAR     60  57  89 CALM      30.04S
WEST BEND      CLEAR     61  59  94 CALM      30.06R FOG
JUNEAU         CLEAR     63  61  93 SE3       30.07R
$$

LSZ147-162-050900-
LAKE SUPERIOR

STATION/POSITION TIME  TEMP    WIND        PRES    WAVE
                       AIR SEA DIR/SP/G            HT/PER
                 (UTC) (F)     (DEG/KT/KT) (MB)    (FT/S)
W MID LAKE BUOY  0650   45 39   90/  6/  8 1012.9F   0
DEVILS ISLAND    0700   57      90/  2/  2 1013.0F
SAXON HARBOR     0700   60     210/  4/  5 1012.5
$$

LMZ867-665-643>646-050900-
LAKE MICHIGAN

STATION/POSITION TIME  TEMP    WIND        PRES    WAVE
                       AIR SEA DIR/SP/G            HT/PER
                 (UTC) (F)     (DEG/KT/KT) (MB)    (FT/S)
CHAMBERS ISLAND  0700   64     150/  3/  6 1016.3F
S GREEN BAY BUOY 0630   68 69  170/  8/ 12 1017.9R
N MID LAKE BUOY  0650   52 48  200/  6/  6 1017.4R   0
NORTHPORT PIER   0700   63     170/  4/  9 1016.6F
SISTER BAY       0714   61     170/ 10/ 12   N/A
ALGOMA LAKESHORE 0711          180/  3/  5   N/A
KEWAUNEE LAKESHO 0700   61     170/  5/  7 1016.3S
SHEBOYGAN LAKESH 0700   63     190/  4/  4 1017.4R
PORT WASHINGTON  0700   63      CALM  /  2 1017.9R
ATWATER BUOY     0700   64 60  180/  6/  6 1018.5R
MILWAUKEE LAKESH 0700   67     210/  3/  5   N/A
KENOSHA   LAKESH 0700   68     220/  3/  5 1017.3R
$$

TC  - TEMPERATURE IN CELSIUS
VSB - VISIBILITY IN STATUTE MILES
WCI - WIND CHILL INDEX
HX  - HEAT INDEX



USA.gov is the U.S. government's official web portal to all federal, state and local government web resources and services.